When you browse on this site, cookies collect data to enhance your experience and personalize the content and advertising you see.
Visit our Privacy Policy to learn more. By continuing to use the site, you agree to this use of cookies and data.
EN

Hourly Weather Al Hillah

Today, 13 August, Thursday

Time Temperature Precipitation Wind Pressure Humidity
00:00 +34°C° 0 mm 2 mps 747 mmHg 25%
01:00 +34°C° 0 mm 2 mps 746 mmHg 25%
02:00 +34°C° 0 mm 3 mps 746 mmHg 25%
03:00 +34°C° 0 mm 3 mps 746 mmHg 25%
04:00 +34°C° 0 mm 3 mps 746 mmHg 26%
05:00 +34°C° 0 mm 3 mps 747 mmHg 27%
06:00 +34°C° 0 mm 4 mps 747 mmHg 28%
07:00 +36°C° 0 mm 5 mps 747 mmHg 25%
08:00 +40°C° 0 mm 6 mps 747 mmHg 21%
09:00 +44°C° 0 mm 7 mps 747 mmHg 18%
10:00 +45°C° 0 mm 7 mps 747 mmHg 16%
11:00 +47°C° 0 mm 7 mps 747 mmHg 15%
12:00 +49°C° 0 mm 8 mps 747 mmHg 13%
13:00 +49°C° 0 mm 8 mps 746 mmHg 12%
14:00 +50°C° 0 mm 8 mps 745 mmHg 12%
15:00 +50°C° 0 mm 8 mps 745 mmHg 11%
16:00 +49°C° 0 mm 7 mps 744 mmHg 11%
17:00 +47°C° 0 mm 6 mps 744 mmHg 12%
18:00 +47°C° 0 mm 5 mps 744 mmHg 12%
19:00 +43°C° 0 mm 4 mps 744 mmHg 14%
20:00 +41°C° 0 mm 4 mps 744 mmHg 16%
21:00 +37°C° 0 mm 3 mps 745 mmHg 18%
22:00 +37°C° 0 mm 3 mps 745 mmHg 19%
23:00 +36°C° 0 mm 3 mps 744 mmHg 19%

Tomorrow, 14 August, Friday

Time Temperature Precipitation Wind Pressure Humidity
00:00 +35°C° 0 mm 3 mps 744 mmHg 20%
01:00 +35°C° 0 mm 3 mps 744 mmHg 20%
02:00 +35°C° 0 mm 3 mps 744 mmHg 20%
03:00 +34°C° 0 mm 3 mps 744 mmHg 21%
04:00 +34°C° 0 mm 4 mps 744 mmHg 21%
05:00 +34°C° 0 mm 4 mps 744 mmHg 22%
06:00 +33°C° 0 mm 5 mps 744 mmHg 23%
07:00 +36°C° 0 mm 6 mps 744 mmHg 20%
08:00 +40°C° 0 mm 7 mps 745 mmHg 16%
09:00 +43°C° 0 mm 8 mps 745 mmHg 13%
10:00 +45°C° 0 mm 8 mps 745 mmHg 11%
11:00 +48°C° 0 mm 8 mps 744 mmHg 10%
12:00 +50°C° 0 mm 9 mps 744 mmHg 9%
13:00 +50°C° 0 mm 9 mps 743 mmHg 8%
14:00 +51°C° 0 mm 9 mps 743 mmHg 8%
15:00 +51°C° 0 mm 9 mps 742 mmHg 7%
16:00 +50°C° 0 mm 8 mps 742 mmHg 8%
17:00 +49°C° 0 mm 8 mps 742 mmHg 8%
18:00 +47°C° 0 mm 7 mps 742 mmHg 9%
19:00 +45°C° 0 mm 7 mps 742 mmHg 10%
20:00 +42°C° 0 mm 6 mps 742 mmHg 10%
21:00 +40°C° 0 mm 5 mps 743 mmHg 11%
22:00 +39°C° 0 mm 5 mps 743 mmHg 12%
23:00 +37°C° 0 mm 5 mps 743 mmHg 13%

Day after tomorrow, 15 August, Saturday

Time Temperature Precipitation Wind Pressure Humidity
00:00 +36°C° 0 mm 5 mps 743 mmHg 14%
01:00 +36°C° 0 mm 5 mps 743 mmHg 15%
02:00 +35°C° 0 mm 5 mps 742 mmHg 16%
03:00 +35°C° 0 mm 6 mps 742 mmHg 16%
04:00 +34°C° 0 mm 5 mps 743 mmHg 19%
05:00 +33°C° 0 mm 5 mps 743 mmHg 21%
06:00 +33°C° 0 mm 5 mps 743 mmHg 23%
07:00 +35°C° 0 mm 6 mps 744 mmHg 20%
08:00 +39°C° 0 mm 6 mps 744 mmHg 17%
09:00 +43°C° 0 mm 7 mps 744 mmHg 14%
10:00 +45°C° 0 mm 7 mps 744 mmHg 12%
11:00 +48°C° 0 mm 8 mps 744 mmHg 10%
12:00 +49°C° 0 mm 9 mps 744 mmHg 8%
13:00 +50°C° 0 mm 9 mps 743 mmHg 7%
14:00 +50°C° 0 mm 9 mps 743 mmHg 7%
15:00 +51°C° 0 mm 9 mps 743 mmHg 6%
16:00 +50°C° 0 mm 8 mps 743 mmHg 7%
17:00 +49°C° 0 mm 7 mps 742 mmHg 7%
18:00 +47°C° 0 mm 5 mps 742 mmHg 8%
19:00 +45°C° 0 mm 5 mps 743 mmHg 9%
20:00 +42°C° 0 mm 4 mps 743 mmHg 10%
21:00 +38°C° 0 mm 4 mps 743 mmHg 12%
22:00 +38°C° 0 mm 4 mps 743 mmHg 12%
23:00 +37°C° 0 mm 4 mps 743 mmHg 13%

16 August, Sunday

Time Temperature Precipitation Wind Pressure Humidity
00:00 +36°C° 0 mm 5 mps 743 mmHg 13%
01:00 +36°C° 0 mm 5 mps 743 mmHg 14%
02:00 +35°C° 0 mm 5 mps 743 mmHg 15%
03:00 +35°C° 0 mm 5 mps 743 mmHg 16%
04:00 +34°C° 0 mm 4 mps 743 mmHg 18%
05:00 +33°C° 0 mm 4 mps 743 mmHg 19%
06:00 +33°C° 0 mm 4 mps 744 mmHg 20%
07:00 +35°C° 0 mm 5 mps 744 mmHg 17%
08:00 +39°C° 0 mm 6 mps 744 mmHg 13%
09:00 +43°C° 0 mm 7 mps 745 mmHg 10%
10:00 +45°C° 0 mm 7 mps 745 mmHg 9%
11:00 +47°C° 0 mm 7 mps 745 mmHg 8%
12:00 +49°C° 0 mm 8 mps 745 mmHg 7%
13:00 +50°C° 0 mm 8 mps 744 mmHg 6%
14:00 +51°C° 0 mm 8 mps 744 mmHg 6%
15:00 +51°C° 0 mm 8 mps 744 mmHg 5%
16:00 +50°C° 0 mm 7 mps 744 mmHg 5%
17:00 +48°C° 0 mm 6 mps 743 mmHg 6%
18:00 +47°C° 0 mm 5 mps 743 mmHg 6%
19:00 +45°C° 0 mm 5 mps 743 mmHg 7%
20:00 +41°C° 0 mm 4 mps 744 mmHg 8%
21:00 +38°C° 0 mm 4 mps 744 mmHg 9%
22:00 +37°C° 0 mm 4 mps 744 mmHg 10%
23:00 +36°C° 0 mm 4 mps 744 mmHg 11%

17 August, Monday

Time Temperature Precipitation Wind Pressure Humidity
00:00 +36°C° 0 mm 3 mps 744 mmHg 11%
01:00 +35°C° 0 mm 4 mps 744 mmHg 13%
02:00 +35°C° 0 mm 4 mps 744 mmHg 15%
03:00 +34°C° 0 mm 4 mps 744 mmHg 16%
04:00 +34°C° 0 mm 4 mps 744 mmHg 17%
05:00 +33°C° 0 mm 4 mps 744 mmHg 17%
06:00 +33°C° 0 mm 4 mps 745 mmHg 18%
07:00 +35°C° 0 mm 5 mps 745 mmHg 16%
08:00 +39°C° 0 mm 6 mps 745 mmHg 13%
09:00 +42°C° 0 mm 6 mps 746 mmHg 11%
10:00 +45°C° 0 mm 7 mps 746 mmHg 10%
11:00 +46°C° 0 mm 7 mps 745 mmHg 9%
12:00 +49°C° 0 mm 7 mps 745 mmHg 8%
13:00 +50°C° 0 mm 7 mps 745 mmHg 8%
14:00 +50°C° 0 mm 8 mps 744 mmHg 7%
15:00 +51°C° 0 mm 8 mps 744 mmHg 6%
16:00 +50°C° 0 mm 7 mps 744 mmHg 7%
17:00 +48°C° 0 mm 6 mps 743 mmHg 7%
18:00 +46°C° 0 mm 5 mps 743 mmHg 7%
19:00 +43°C° 0 mm 4 mps 744 mmHg 9%
20:00 +40°C° 0 mm 4 mps 744 mmHg 10%
21:00 +37°C° 0 mm 4 mps 744 mmHg 11%
22:00 +36°C° 0 mm 4 mps 744 mmHg 12%
23:00 +35°C° 0 mm 4 mps 744 mmHg 12%

18 August, Tuesday

Time Temperature Precipitation Wind Pressure Humidity
00:00 +35°C° 0 mm 4 mps 744 mmHg 12%
01:00 +34°C° 0 mm 4 mps 744 mmHg 14%
02:00 +34°C° 0 mm 4 mps 744 mmHg 15%
03:00 +33°C° 0 mm 4 mps 744 mmHg 16%
04:00 +33°C° 0 mm 5 mps 744 mmHg 17%
05:00 +32°C° 0 mm 5 mps 744 mmHg 18%
06:00 +32°C° 0 mm 5 mps 744 mmHg 19%
07:00 +35°C° 0 mm 6 mps 744 mmHg 18%
08:00 +38°C° 0 mm 7 mps 745 mmHg 18%
09:00 +41°C° 0 mm 8 mps 745 mmHg 17%
10:00 +44°C° 0 mm 8 mps 745 mmHg 14%
11:00 +46°C° 0 mm 8 mps 745 mmHg 12%
12:00 +49°C° 0 mm 9 mps 744 mmHg 9%
13:00 +49°C° 0 mm 9 mps 744 mmHg 9%
14:00 +50°C° 0 mm 9 mps 743 mmHg 8%
15:00 +50°C° 0 mm 9 mps 743 mmHg 7%
16:00 +49°C° 0 mm 7 mps 743 mmHg 7%
17:00 +47°C° 0 mm 6 mps 743 mmHg 8%
18:00 +46°C° 0 mm 5 mps 742 mmHg 8%
19:00 +43°C° 0 mm 5 mps 743 mmHg 10%
20:00 +40°C° 0 mm 4 mps 743 mmHg 12%
21:00 +37°C° 0 mm 4 mps 744 mmHg 14%
22:00 +36°C° 0 mm 4 mps 743 mmHg 14%
23:00 +36°C° 0 mm 4 mps 743 mmHg 15%
Show more